Address 0x008a4776f1a190cf245249924d7a0447b0ec005d 12

Txn Hash Method
Block
From
To
Value [Txn Fee]
0xe1ca64fe9312305ef5f476c728d445518c3e257feabf138b51c3b5405dd46b17Transfer125841342021-09-22 9:51:262 days 18 hrs ago0x8009062551f3b6d817bd9e5780ed7fef61b54a21 IN 0x008a4776f1a190cf245249924d7a0447b0ec005d0.50522442 BNB0.00021
0x5e65539cb19c72a0595b289023cc2bd2cb47267130fb64172f0a5833789a8be6Transfer123830112021-09-15 8:44:529 days 19 hrs ago0x008a4776f1a190cf245249924d7a0447b0ec005dOUT0x8e249b15ddbd27c09eb792026b7f002043a88a2b1 BNB0.00021
0x0b304be6d95bfb7f67cc8a328b7248d69884ec4391c29584cc4edfaaf344714dTransfer123830042021-09-15 8:44:319 days 19 hrs ago0xaa25aa7a19f9c426e07dee59b12f944f4d9f1dd3 IN 0x008a4776f1a190cf245249924d7a0447b0ec005d1 BNB0.000378
0x3fef09ef98c525e1c532100cc841427c72a63118ab9bfc138e6fa5fbbe9107c9Transfer123194932021-09-13 3:17:1112 days 1 hr ago0x008a4776f1a190cf245249924d7a0447b0ec005dOUT0x3b5f98f585535b8b274863c0958176167874d6471 BNB0.00021
0xb18a4526b2d51817278c7d817da53c124d29d3cb4d102b5ef936cb3592231547Transfer123194852021-09-13 3:16:4712 days 1 hr ago0x008a4776f1a190cf245249924d7a0447b0ec005dOUT0x42868eff0acfb5fb76b96e3e4c7f47ba015fb3821 BNB0.00021
0xd2ede2219f2105b1c30b451cf09993a79f62a732aed0526e4cb032d90e21b143Transfer123194472021-09-13 3:14:5312 days 1 hr ago0xaa25aa7a19f9c426e07dee59b12f944f4d9f1dd3 IN 0x008a4776f1a190cf245249924d7a0447b0ec005d1 BNB0.000378
0xb430fc0dd433e7e5c4a3c9d90e356d75560466f13bf967b0089a26538e898e63Transfer122383152021-09-10 6:59:0014 days 21 hrs ago0xaa25aa7a19f9c426e07dee59b12f944f4d9f1dd3 IN 0x008a4776f1a190cf245249924d7a0447b0ec005d1 BNB0.000378
0x6891862e29329277748a06b59209379a6d502208f3849c32d0bec04a82502656Transfer121836092021-09-08 9:21:1216 days 19 hrs ago0x008a4776f1a190cf245249924d7a0447b0ec005dOUT0x39ddbc91834f1cca19fcef1a2a3f78f765a344980.5 BNB0.00021
0xfb6c49623d70ee77568e28bc4de5b26fa447e79b1d6615ccb6a1747383114293Transfer121836042021-09-08 9:20:5716 days 19 hrs ago0x008a4776f1a190cf245249924d7a0447b0ec005dOUT0x452534c24d53adb488032aa29b39047e92099c360.5 BNB0.00021
0x1eed8b6dabcb2db8c393714ca693c12c40f2ab1352e916a5df3e1346aadbf5f4Transfer121833592021-09-08 9:08:3516 days 19 hrs ago0x008a4776f1a190cf245249924d7a0447b0ec005dOUT 0x5220e424205fc4bff770ca3bdcdd1db86b78893e0 BNB0.00052904
0xbb41234ad684fcf7eb4b193a16a8ed4569b9772247d66d082fbfd03aea2b9e03Transfer121833532021-09-08 9:08:1716 days 19 hrs ago0x008a4776f1a190cf245249924d7a0447b0ec005dOUT 0x01668e5dda20bc87f82ba42e211b8c539e6e26d10 BNB0.00052904
0x820b335aa2d8c75c7a498d49ea9c57ee0978056732e6d88afaecd01e0b1348dbTransfer121833492021-09-08 9:08:0516 days 19 hrs ago0x008a4776f1a190cf245249924d7a0447b0ec005dOUT 0xf4b4904732c1173d9d42a83e569232741d6d53e20 BNB0.00053858
0x7fd01ca0731ac2da01e88644e8f125edec0e070e320285338273a2b9749b1afeTransfer121561092021-09-07 10:25:0417 days 18 hrs ago0xaa25aa7a19f9c426e07dee59b12f944f4d9f1dd3 IN 0x008a4776f1a190cf245249924d7a0447b0ec005d1 BNB0.000378
0x8b9bcb0eedbec96f421aa295a16fc58ef31e2adeaa2f928621e1d351e50ca1d50x6f4f07c7121560762021-09-07 10:23:2517 days 18 hrs ago0x008a4776f1a190cf245249924d7a0447b0ec005dOUT 0x27334edecde51915b2c9c417d023a26ba4fe683c0 BNB0.00117704
0x545bd12800c1f156191f831721b847d107a9eb9232435495e6678c92d3a71129Approve121560602021-09-07 10:22:3717 days 18 hrs ago0x008a4776f1a190cf245249924d7a0447b0ec005dOUT 0x5220e424205fc4bff770ca3bdcdd1db86b78893e0 BNB0.00046053
0xf8f2ad2c72c42f2a46b33812f3fafe6f1ceba6f4041cb54c1aba80e0be1f73a80xcbcf300b121560472021-09-07 10:21:5817 days 18 hrs ago0x008a4776f1a190cf245249924d7a0447b0ec005dOUT 0x27334edecde51915b2c9c417d023a26ba4fe683c0 BNB0.00183047
0xb7a75f81aadb50c0af23e59054ebaff6365a68a98e12ede54cdf13b6dc33b5b9Create121560242021-09-07 10:20:4917 days 18 hrs ago0x008a4776f1a190cf245249924d7a0447b0ec005dOUT 0x9e83068f0be312448567e6430d3be9e60550d0830 BNB0.03588244
0x90af96b5608efba3e7a1597874a7b469044bf3b5ca27c4e70fac3ca6eda23b73Approve121560192021-09-07 10:20:3417 days 18 hrs ago0x008a4776f1a190cf245249924d7a0447b0ec005dOUT 0xf4b4904732c1173d9d42a83e569232741d6d53e20 BNB0.0004607
0x3d95d59b92092941a25225358639cdb22e347d737b5a6234d2ff78c3be9f6a42Set_D Swap_Main_...121553762021-09-07 9:48:2517 days 18 hrs ago0x008a4776f1a190cf245249924d7a0447b0ec005dOUT 0x376179a75552d0ac529134f0aea1a0a3950091570 BNB0.00028401
0xfc64ee97882398589744068dec24f08160908f537ced0804f9607bb5fd274e0eSet_Trading_Char...121553672021-09-07 9:47:5817 days 18 hrs ago0x008a4776f1a190cf245249924d7a0447b0ec005dOUT 0x9e83068f0be312448567e6430d3be9e60550d0830 BNB0.00043515
0x1c145183bf987b2a94027e53c789a5924731373302060ddbe9c4031b26d8da93Set_Token_Collec...121553622021-09-07 9:47:4317 days 18 hrs ago0x008a4776f1a190cf245249924d7a0447b0ec005dOUT 0x9e83068f0be312448567e6430d3be9e60550d0830 BNB0.00043528
0x796b454d533ecce5b77c84a3b1049ac4242871daf318eb2fd694b730fa50998eSet_Factory_Lib121553552021-09-07 9:47:2217 days 18 hrs ago0x008a4776f1a190cf245249924d7a0447b0ec005dOUT 0x9e83068f0be312448567e6430d3be9e60550d0830 BNB0.00043536
0x0b2570c7a6263b43d30560bcb6e0f99512e4ade2252cadce09f33af44cf179b0Set_Arche_Amount...121553482021-09-07 9:47:0117 days 18 hrs ago0x008a4776f1a190cf245249924d7a0447b0ec005dOUT 0x9e83068f0be312448567e6430d3be9e60550d0830 BNB0.00023102
0xb75557adfdfa73ac3b6635a55fa3ce2357d54e14d324fbdf5a64abd4bf0ef2e9Set_Arche_Addres...121553422021-09-07 9:46:4317 days 18 hrs ago0x008a4776f1a190cf245249924d7a0447b0ec005dOUT 0x9e83068f0be312448567e6430d3be9e60550d0830 BNB0.00043505
0xfa5a9a410cd2a0e0b66063feffe1d1335259940e4f8198c5f76170df593e4ae40x60806040121553342021-09-07 9:46:1917 days 18 hrs ago0x008a4776f1a190cf245249924d7a0447b0ec005dOUT Contract Creation0 BNB0.01465499
[ Download CSV Export 
Latest 3 internal transactions
Parent Txn Hash Block From To Value
0xf841d1bbdf835a14d74648069d553094502316ce8f877e26072ee2e73fd408db79067262021-04-12 6:52:30165 days 21 hrs ago 0x0249ef1cd0f7dd244e3c14ef7e23d030cbf9984b0x008a4776f1a190cf245249924d7a0447b0ec005d23.15042485 BNB
0x02392f3a19d1cf0fd0c1fbabdedc623fcac82c21e9803685188046d2de572cb077877592021-04-08 3:44:09170 days 46 mins ago 0x0249ef1cd0f7dd244e3c14ef7e23d030cbf9984b0x008a4776f1a190cf245249924d7a0447b0ec005d2.18952239 BNB
0xcbe7da9a865239d4c6b3a09ab5da184c858446d8e6681a1056f322d9496dd65377869902021-04-08 3:05:42170 days 1 hr ago 0x0249ef1cd0f7dd244e3c14ef7e23d030cbf9984b0x008a4776f1a190cf245249924d7a0447b0ec005d0.81047691 BNB
[ Download CSV Export 
Loading

Contract Name:
0 BNB

Compiler Version
0

Optimization Enabled:
0 BNB

Other Settings:
-NA-
Block Transaction Gas Used Reward
Age Block Fee Address BC Fee Address Voting Power Jailed Incoming
Block Uncle Number Difficulty Gas Used Reward
Loading